Location: Kuppenheim
(48.8299°N, 8.2568°E)
Time: 16:13:56
(UTC+00:00)

S3M - Pass Details

Date: 20 June 2021
Orbit: 950 x 1004 km, 83.0° (Epoch: 30 July)

Event Time Altitude Azimuth Distance (km) Brightness Sun altitude
Rises 02:07:22 0° 350° (N) 3,641 7.7 -9.5°
Reaches altitude 10° 02:09:51 10° 351° (N) 2,696 7.0 -9.3°
Maximum altitude 02:16:02 89° 263° (W) 970 4.0 -8.6°
Drops below altitude 10° 02:22:15 10° 173° (S) 2,708 5.9 -8.0°
Sets 02:24:45 0° 174° (S) 3,659 6.6 -7.7°
